Weather History for Pagosa Springs, CO

Change the Weather History Date:

Wednesday, December 4, 2013

  Actual Average (KDRO) Record (KDRO)
Temperature  
Mean Temperature 22 °F 29 °F  
Max Temperature 38 °F 42 °F 64 °F (2006)
Min Temperature 7 °F 17 °F 3 °F (1971)
Degree Days  
Heating Degree Days 42 36  
Month to date heating degree days 142  
Since 1 July heating degree days 1815  
Cooling Degree Days 0 0  
Month to date cooling degree days 0  
Year to date cooling degree days 243  
Moisture  
Dew Point 19 °F    
Average Humidity 71    
Maximum Humidity 97    
Minimum Humidity 47    
Precipitation  
Precipitation 0.00 in 0.04 in 0.30 in (1983)
Month to date precipitation 0.14  
Year to date precipitation 15.04  
Sea Level Pressure  
Sea Level Pressure 29.66 in    
Wind  
Wind Speed 12 mph (SW)    
Max Wind Speed 23 mph    
Max Gust Speed 37 mph    
Visibility 7 miles    
Events Snow    
T = Trace of Precipitation, MM = Missing Value Source: NWS Daily Summary

Daily Weather History Graph

Daily Weather History Graph

Search for Another Location

Airport:

Trip Planner

Search our weather history database for the weather conditions in past years. The results will help you decide how hot, cold, wet, or windy it might be!

Date:

Astronomy

Dec. 04, 2013 Rise Set
Actual Time 7:06 AM MST 4:50 PM MST
Civil Twilight 6:37 AM MST 5:19 PM MST
Nautical Twilight 6:05 AM MST 5:51 PM MST
Astronomical Twilight 5:33 AM MST 6:23 PM MST
Moon 8:38 AM MST (12/4) 7:03 PM MST (12/4)
Length of Visible Light 10h 41m
Length of Day
9h 43m
Waxing Crescent, 5% of the Moon is Illuminated
Dec 4
Waxing Crescent
Dec 9
First Quarter
Dec 17
Full
Dec 25
Last Quarter
Jan 1
New

Hourly Weather History & Observations

Time (MST) Temp. Windchill Dew Point Humidity Pressure Visibility Wind Dir Wind Speed Gust Speed Precip Events Conditions
12:15 AM 38.5 °F 32.1 °F 21.4 °F 50% 29.63 in 10.0 mi SW 9.2 mph 23.0 mph N/A   Overcast
12:35 AM 38.3 °F 30.9 °F 20.7 °F 49% 29.62 in 10.0 mi WSW 11.5 mph - N/A   Overcast
12:55 AM 38.5 °F 30.3 °F 19.9 °F 47% 29.62 in 10.0 mi SW 13.8 mph 20.7 mph N/A   Overcast
1:15 AM 38.3 °F 31.9 °F 20.1 °F 48% 29.62 in 10.0 mi SW 9.2 mph 20.7 mph N/A   Overcast
1:35 AM 37.9 °F 30.9 °F 20.3 °F 49% 29.62 in 10.0 mi SW 10.4 mph 17.3 mph N/A   Overcast
1:55 AM 37.2 °F 30.0 °F 20.7 °F 51% 29.61 in 10.0 mi SSW 10.4 mph - N/A   Overcast
2:15 AM 36.7 °F 28.4 °F 20.8 °F 53% 29.62 in 10.0 mi SW 12.7 mph 17.3 mph N/A   Overcast
2:35 AM 36.7 °F 28.4 °F 20.8 °F 53% 29.61 in 10.0 mi SSW 12.7 mph 18.4 mph N/A   Overcast
2:55 AM 36.7 °F 29.4 °F 20.5 °F 52% 29.61 in 10.0 mi SW 10.4 mph 19.6 mph N/A   Overcast
3:15 AM 36.5 °F 27.4 °F 21.0 °F 54% 29.59 in 10.0 mi SW 15.0 mph - N/A   Overcast
3:35 AM 36.5 °F 28.2 °F 21.6 °F 55% 29.58 in 10.0 mi SSW 12.7 mph 17.3 mph N/A   Overcast
3:55 AM 36.3 °F 27.1 °F 21.9 °F 56% 29.58 in 10.0 mi SSW 15.0 mph 23.0 mph N/A   Overcast
4:15 AM 36.0 °F 26.7 °F 22.3 °F 58% 29.56 in 10.0 mi SSW 15.0 mph 21.9 mph N/A   Overcast
4:35 AM 36.1 °F 27.3 °F 22.8 °F 58% 29.56 in 10.0 mi SW 13.8 mph 23.0 mph N/A   Overcast
4:55 AM 36.1 °F 27.3 °F 23.2 °F 59% 29.55 in 10.0 mi SW 13.8 mph 21.9 mph N/A   Overcast
5:15 AM 36.7 °F 28.9 °F 23.7 °F 59% 29.55 in 10.0 mi SW 11.5 mph 20.7 mph N/A   Overcast
5:35 AM 36.5 °F 29.7 °F 24.4 °F 62% 29.55 in 10.0 mi SW 9.2 mph 17.3 mph N/A   Overcast
5:55 AM 36.5 °F 26.3 °F 25.5 °F 64% 29.54 in 10.0 mi SW 18.4 mph 24.2 mph N/A Snow Light Snow
6:15 AM 36.1 °F 26.2 °F 26.6 °F 68% 29.55 in 5.0 mi SW 17.3 mph 26.5 mph N/A Snow Light Snow
6:35 AM 36.0 °F 26.7 °F 26.8 °F 69% 29.55 in 7.0 mi SW 15.0 mph 21.9 mph N/A Snow Light Snow
6:55 AM 35.8 °F 26.1 °F 27.3 °F 71% 29.56 in 7.0 mi SW 16.1 mph 23.0 mph N/A Snow Light Snow
7:15 AM 36.0 °F 25.6 °F 27.0 °F 70% 29.55 in 7.0 mi SW 18.4 mph 28.8 mph N/A Snow Light Snow
7:35 AM 36.7 °F 27.2 °F 26.2 °F 66% 29.55 in 10.0 mi SW 16.1 mph 25.3 mph N/A Snow Light Snow
7:55 AM 36.7 °F 26.6 °F 25.7 °F 64% 29.55 in 10.0 mi SSW 18.4 mph 31.1 mph N/A   Overcast
8:15 AM 36.0 °F 26.7 °F 26.1 °F 67% 29.56 in 4.0 mi SSW 15.0 mph 28.8 mph N/A Snow Light Snow
8:35 AM 34.5 °F 24.1 °F 27.5 °F 76% 29.57 in 1.5 mi SSW 17.3 mph 36.8 mph N/A Snow Light Snow
8:55 AM 34.0 °F 24.6 °F 27.1 °F 76% 29.57 in 3.0 mi SW 13.8 mph 27.6 mph N/A Snow Light Snow
9:15 AM 33.8 °F 23.5 °F 27.1 °F 77% 29.56 in 3.0 mi SW 16.1 mph 25.3 mph N/A Snow Light Snow
9:35 AM 35.2 °F 23.5 °F 25.2 °F 67% 29.57 in 7.0 mi SW 23.0 mph 36.8 mph N/A Snow Light Snow
9:55 AM 33.4 °F 22.3 °F 27.5 °F 79% 29.59 in 0.8 mi SW 18.4 mph 31.1 mph N/A Snow Light Snow
10:15 AM 32.0 °F 22.1 °F 30.7 °F 95% 29.59 in 0.5 mi SW 13.8 mph 20.7 mph N/A Snow Snow
10:35 AM 32.0 °F 20.1 °F 31.3 °F 97% 29.59 in 0.5 mi SW 19.6 mph 26.5 mph N/A Snow Snow
10:55 AM 32.0 °F 20.8 °F 30.9 °F 96% 29.59 in 1.2 mi SW 17.3 mph 24.2 mph N/A Snow Light Snow
11:15 AM 32.0 °F 21.2 °F 30.7 °F 95% 29.59 in 0.8 mi SW 16.1 mph 20.7 mph N/A Snow Light Snow
11:35 AM 31.1 °F 19.7 °F 29.1 °F 92% 29.59 in 0.8 mi WSW 17.3 mph 25.3 mph N/A Snow Light Snow
11:55 AM 30.4 °F 18.0 °F 26.1 °F 84% 29.60 in 0.5 mi WSW 19.6 mph 33.4 mph N/A Snow Light Snow
12:15 PM 29.8 °F 17.0 °F 23.5 °F 77% 29.59 in 1.8 mi WSW 20.7 mph 31.1 mph N/A Snow Light Snow
12:35 PM 28.8 °F 16.2 °F 23.7 °F 81% 29.59 in 1.8 mi SW 18.4 mph 28.8 mph N/A Snow Light Snow
12:55 PM 28.0 °F 15.3 °F 25.0 °F 88% 29.60 in 1.0 mi SW 18.4 mph 27.6 mph N/A Snow Light Snow
1:15 PM 27.3 °F 15.2 °F 25.7 °F 94% 29.61 in 0.5 mi SW 16.1 mph 21.9 mph N/A Snow Snow
1:35 PM 27.1 °F 16.4 °F 25.5 °F 94% 29.61 in 0.5 mi WSW 12.7 mph 18.4 mph N/A Snow Light Snow
1:55 PM 27.5 °F 15.0 °F 24.1 °F 87% 29.60 in 1.2 mi SW 17.3 mph 24.2 mph N/A Snow Light Snow
2:15 PM 27.1 °F 14.1 °F 20.7 °F 77% 29.62 in 2.5 mi SW 18.4 mph 28.8 mph N/A Snow Light Snow
2:35 PM 25.7 °F 13.1 °F 21.0 °F 82% 29.65 in 1.0 mi SW 16.1 mph 27.6 mph N/A Snow Light Snow
2:55 PM 25.2 °F 13.9 °F 23.0 °F 91% 29.66 in 0.8 mi SW 12.7 mph 23.0 mph N/A Snow Light Snow
3:15 PM 25.5 °F 14.3 °F 20.3 °F 81% 29.67 in 7.0 mi WSW 12.7 mph 19.6 mph N/A   Overcast
3:35 PM 26.1 °F 13.6 °F 17.2 °F 69% 29.70 in 10.0 mi SW 16.1 mph 23.0 mph N/A   Overcast
3:55 PM 25.5 °F 14.3 °F 17.2 °F 71% 29.71 in 7.0 mi SW 12.7 mph 16.1 mph N/A   Overcast
4:15 PM 25.3 °F 15.3 °F 16.9 °F 70% 29.71 in 10.0 mi SW 10.4 mph - N/A   Overcast
4:35 PM 25.5 °F 18.7 °F 14.2 °F 62% 29.72 in 10.0 mi SW 5.8 mph - N/A   Overcast
4:55 PM 25.2 °F 17.3 °F 12.4 °F 58% 29.73 in 10.0 mi SW 6.9 mph - N/A   Overcast
5:15 PM 24.4 °F 15.6 °F 12.9 °F 62% 29.74 in 10.0 mi SW 8.1 mph - N/A   Overcast
5:35 PM 23.9 °F 14.2 °F 12.7 °F 62% 29.75 in 10.0 mi SSW 9.2 mph - N/A   Overcast
5:55 PM 22.5 °F 14.1 °F 11.3 °F 62% 29.76 in 10.0 mi SSW 6.9 mph - N/A   Scattered Clouds
6:15 PM 20.7 °F 8.8 °F 9.7 °F 63% 29.76 in 10.0 mi SSW 11.5 mph - N/A   Clear
6:35 PM 21.4 °F 10.4 °F 7.5 °F 55% 29.76 in 10.0 mi SW 10.4 mph - N/A   Clear
6:55 PM 21.0 °F 10.6 °F 7.7 °F 56% 29.77 in 10.0 mi SSW 9.2 mph - N/A   Clear
7:15 PM 20.8 °F 13.2 °F 8.2 °F 58% 29.78 in 10.0 mi SW 5.8 mph - N/A   Clear
7:35 PM 20.1 °F 11.3 °F 8.6 °F 61% 29.79 in 10.0 mi SSW 6.9 mph - N/A   Clear
7:55 PM 19.8 °F 13.2 °F 8.4 °F 61% 29.80 in 10.0 mi SW 4.6 mph - N/A   Clear
8:15 PM 18.5 °F 10.4 °F 7.7 °F 63% 29.81 in 10.0 mi SSW 5.8 mph - N/A   Clear
8:35 PM 16.7 °F 8.3 °F 7.5 °F 67% 29.82 in 10.0 mi SSW 5.8 mph - N/A   Clear
8:55 PM 14.0 °F - 6.3 °F 71% 29.83 in 10.0 mi Calm Calm - N/A   Clear
9:15 PM 11.8 °F - 6.3 °F 78% 29.84 in 10.0 mi Calm Calm - N/A   Clear
9:35 PM 10.0 °F - 5.4 °F 81% 29.84 in 10.0 mi Calm Calm - N/A   Clear
9:55 PM 10.2 °F - 7.3 °F 88% 29.85 in 10.0 mi Calm Calm - N/A   Clear
10:15 PM 9.9 °F - 5.4 °F 82% 29.85 in 10.0 mi Calm Calm - N/A   Clear
10:35 PM 9.7 °F - 7.2 °F 90% 29.85 in 10.0 mi Calm Calm - N/A   Clear
10:55 PM 8.2 °F - 5.5 °F 89% 29.85 in 10.0 mi Calm Calm - N/A   Clear
11:15 PM 7.3 °F - 5.5 °F 92% 29.85 in 10.0 mi Calm Calm - N/A   Clear
11:35 PM 7.7 °F - 5.2 °F 89% 29.85 in 10.0 mi Calm Calm - N/A   Clear
11:55 PM 7.2 °F - 5.7 °F 94% 29.86 in 10.0 mi Calm Calm - N/A   Clear